KUIPER-00097

导读

KUIPER-00097是由美国(US)于2025年8月11日发射的卫星,隶属于柯伊伯(Kuiper)卫星星座项目。该项目由亚马逊主导,旨在构建低轨宽带卫星互联网系统,为全球提供高速网络覆盖服务。KUIPER-00097的成功入轨,进一步推动了该星座的部署进程,助力完成全球网络覆盖的战略布局。

Basic Information
目录编号:
65136
目录名称:
KUIPER-00097
国际标识:
2025-171E
轨道中心:
EARTH
卫星名称:
KUIPER-00097
卫星全名:
KUIPER-00097
卫星状态:
在轨 (已飞行397 天)
发射日期:
2025-08-11 UTC
国别 :
美国 (US)
星等 :
--
This satellite is enrolled in the Space Conjunction Data Service (SCDS) and the current flight risk assessment level is: No High Risk
Orbit Information
数据来源 国际轨道数据 AOE轨道数据
星历时间 2026-09-11T18:47:00+0800
17小时前
查看轨道信息
2026-09-10T23:00:00+0800
1天前
查看轨道信息
半长轴 7007.667km 7007.682km
偏心率 0.0000645 0.0000596
轨道倾角 51.900° 51.900°
近地点辐角 70.189° 84.265°
升交点赤经 59.306° 62.949°
平近点角 289.914° 201.494°
近地点 629.078km 629.127km
远地点 629.982km 629.963km
周期 97.302分钟 97.302分钟
每日圈数 14.799349 14.799301
Detailed Information
使用方式:
暂无
2D Orbit Map
3D Orbit Map
Orbit Altitude Analysis Chart
Orbit Inclination Analysis Chart
Orbit Comprehensive Analysis Chart
View Comprehensive Chart
Conjunction Data List
Event ID Objects TCA Miss Dist (km) Collision Risk Probability Collision Risk Index (CRI) Action
CDM_260914-015705-493306-513621
2026-09-14T
01:57:17+0000
1.618 km
极远距离
2.924323E-6 低风险 0.44
Miss Distance Evolution Trend with All Objects
Collision Probability Evolution Trend with All Objects